Flag for Germany Weather past 2 weeks in Hof (Saale), Bavaria, Germany

Now
55 °F

Partly sunny.


Feels Like: 55 °F
Forecast: 53 / 67 °F
Wind: 2 mph from South

Location: Hof

Current Time: Aug 29, 2014 at 7:35:13 AM

Latest Report: Aug 29, 2014 at 7:00 AM


Visibility: 16 mi

Pressure: 30.02 "Hg

Humidity: 86%

Dew point: 51 °F

Location of Hof (Saale)Location

Historic Weather in Hof (Saale) — Graph

°F

Hof (Saale) temperature yesterday

Maximum temperature yesterday: 68 °F (at 6:00 PM)
Minimum temperature yesterday: 41 °F (at 7:00 AM)
Average temperature yesterday: 55 °F

Past Weeks' High & Low Weather Summary

 TemperatureHumidityPressure
High68 °F (Aug 28, 6:00 PM)98% (Aug 26, 5:00 AM)30.15 "Hg (Aug 26, 5:00 AM)
Low41 °F (Aug 28, 7:00 AM)40% (Aug 22, 6:00 PM)29.68 "Hg (Aug 26, 9:00 AM)
Average54 °F77%29.94 "Hg
* Reported Aug 14 6:00 AM — Aug 29 6:00 AM, Hof (Saale), Weather by CustomWeather, © 2014

Note: Actual official high and low records may vary slightly from our data, if they occured in-between our weather recording intervals... More about our weather records

Advertising

Hof (Saale) weather history for previous 24 hours

 ConditionsComfort  
Time TempWeatherWind HumidityBarometerVisibility
6:00 AM
Aug 29
54 °FPassing clouds.2 mph87%30.02 "Hg16 mi
5:00 AM56 °FPassing clouds.2 mph85%30.03 "Hg17 mi
4:00 AM58 °FOvercast.2 mph84%30.03 "Hg19 mi
3:00 AM59 °FOvercast.3 mph77%30.03 "Hg19 mi
2:00 AM60 °FOvercast.2 mph70%30.03 "Hg31 mi
1:00 AM58 °FOvercast.2 mph75%30.04 "Hg22 mi
12:00 AM59 °FOvercast.3 mph72%30.04 "Hg25 mi
10:00 PM
Aug 28
59 °FOvercast.3 mph71%30.05 "Hg25 mi
9:00 PM64 °FOvercast.3 mph59%30.03 "Hg37 mi
8:00 PM64 °FPartly sunny.2 mph57%30.01 "Hg43 mi
7:00 PM65 °FOvercast.2 mph57%30.02 "Hg43 mi
6:00 PM68 °FScattered clouds.3 mph47%30.01 "Hg43 mi
4:00 PM67 °FScattered clouds.2 mph47%30.03 "Hg34 mi
3:00 PM67 °FPassing clouds.2 mph49%30.04 "Hg37 mi
2:00 PM66 °FScattered clouds.2 mph48%30.04 "Hg34 mi
1:00 PM62 °FScattered clouds.2 mph50%30.07 "Hg34 mi
12:00 PM63 °FPassing clouds.2 mph49%30.07 "Hg22 mi
10:00 AM58 °FPassing clouds.1 mph72%30.10 "Hg22 mi
9:00 AM51 °FSunny.1 mph81%30.12 "Hg16 mi
8:00 AM45 °FPassing clouds.1 mph91%30.14 "Hg11 mi
7:00 AM41 °FPassing clouds.2 mph97%30.15 "Hg6 mi
Weather by CustomWeather, © 2014

See weather overviewHow to use our weather pages